Home > Weather > Cobar > Past weeks

Flag for Australia Past Weather in Cobar, New South Wales, Australia — Yesterday and Last 2 Weeks

Now
42 °F

Scattered clouds.


Feels Like: 39 °F
Forecast: 39 / 51 °F
Wind: 6 mph from East

Location: Cobar

Current Time: Jun 26, 2016 at 11:02:07 AM

Latest Report: Jun 26, 2016 at 9:00 AM


Visibility: N/A

Pressure: 30.15 "Hg

Humidity: 82%

Dew Point: 37 °F

Location of CobarLocation

Past Weather in Cobar — Graph

°F

Cobar Temperature Yesterday

Maximum temperature yesterday: 51 °F (at 3:00 PM)
Minimum temperature yesterday: 34 °F (at 5:00 AM)
Average temperature yesterday: 42 °F

High & Low Weather Summary for the Past Weeks

 TemperatureHumidityPressure
High67 °F (Jun 16, 2:00 PM)99% (Jun 17, 11:00 PM)30.59 "Hg (Jun 17, 11:00 PM)
Low34 °F (Jun 25, 5:00 AM)38% (Jun 12, 12:00 PM)29.62 "Hg (Jun 19, 3:00 PM)
Average52 °F80%30.11 "Hg
* Reported Jun 11 9:00 AM — Jun 26 9:00 AM, Cobar, Weather by CustomWeather, © 2016

Note: Actual official high and low records may vary slightly from our data, if they occured in-between our weather recording intervals... More about our weather records

Advertising

Cobar Weather History for the Previous 24 Hours

Scroll right to see more
 ConditionsComfort  
Time TempWeatherWind HumidityBarometerVisibility
9:00 AM
Sun, Jun 26
42 °FScattered clouds.6 mph82%30.15 "HgN/A
8:00 AM39 °FChilly.6 mph89%30.17 "HgN/A
6:00 AM38 °FOvercast.6 mph90%30.15 "HgN/A
5:00 AM39 °FChilly.7 mph85%30.14 "HgN/A
3:00 AM39 °FOvercast.8 mph85%30.12 "HgN/A
2:00 AM37 °FChilly.6 mph88%30.17 "HgN/A
12:00 AM37 °FChilly.6 mph86%30.17 "HgN/A
11:00 PM
Sat, Jun 25
39 °FChilly.6 mph78%30.19 "HgN/A
9:00 PM40 °FChilly.6 mph76%30.20 "HgN/A
8:00 PM44 °FQuite cool.5 mph64%30.21 "HgN/A
6:00 PM45 °FCool.5 mph59%30.19 "HgN/A
5:00 PM49 °FCool.5 mph46%30.19 "HgN/A
3:00 PM51 °FCool.6 mph45%30.19 "HgN/A
2:00 PM50 °FCool.6 mph46%30.19 "HgN/A
12:00 PM48 °FCool.7 mph54%30.24 "HgN/A
11:00 AM47 °FCool.8 mph56%30.26 "HgN/A
Weather by CustomWeather, © 2016

See weather overviewHow to use our weather pages